Location: Ertinghausen
(51.6624°N, 9.7874°E)
Time: 22:09:32
(UTC+00:00)

Daily predictions for brighter satellites

Satellite Brightness Start Highest point End
(mag) Time Altitude Azimuth Time Altitude Azimuth Time Altitude Azimuth
NOSS 3-2 (A) 3.3 15:43:10 10° SSW 15:48:10 65° SE 15:54:14 10° NE
Cosmos 1782 3.2 15:46:14 10° SSE 15:49:31 34° E 15:52:49 10° NNE
NOSS 3-2 (C) 4.1 15:45:45 10° S 15:50:07 30° ESE 15:55:11 10° ENE
SL-08 ROCKET BODY 4.5 15:44:28 10° N 15:50:20 58° ENE 15:56:16 10° SSE
Cosmos 1656 4.0 15:45:03 10° S 15:50:29 53° ESE 15:56:01 10° NE
Cosmos 2034 Rocket 4.4 15:44:50 10° SSW 15:51:09 70° WNW 15:57:33 10° N
Cosmos 1758 Rocket 3.6 15:46:55 10° N 15:51:10 55° ENE 15:55:23 10° SSE
Cosmos 2208 Rocket 4.0 15:47:57 10° NNW 15:53:09 84° ENE 15:58:21 10° SSE
Cosmos 2098 Rocket 3.7 15:50:58 10° SSE 15:54:58 39° E 15:59:36 10° NNE
NOSS 2-2 (E) 3.3 15:52:31 10° SSW 15:55:40 43° SE 15:58:34 10° NE
Cosmos 724 4.4 15:50:34 10° NW 15:56:42 87° NE 16:02:37 10° SE
Meteor 1-20 Rocket 4.4 15:52:34 10° N 15:57:50 45° ENE 16:03:04 10° SE
CZ-4C R/B 2.9 15:52:50 10° NW 15:59:29 79° NE 16:07:55 10° SE
Cosmos 2266 Rocket 4.2 15:54:54 10° N 16:00:50 46° ENE 16:06:38 10° SE
Cosmos 405 Rocket 2.6 15:59:25 10° NNW 16:02:40 70° WSW 16:05:52 10° S
CBERS-1 4.0 16:00:12 10° SSE 16:05:18 79° ENE 16:10:27 10° NNW
SMAP 3.3 16:02:16 10° SE 16:06:45 49° ENE 16:11:15 10° N
Cosmos 2297 Rocket 2.3 16:03:03 10° NNW 16:08:47 87° WSW 16:14:27 10° SSE
Landsat 7 4.1 16:07:12 10° SE 16:11:35 43° ENE 16:15:59 10° N
[s.n.66845] 3.7 16:11:44 10° NNE 16:12:44 12° NE 16:12:44 12° NE
[s.n.66847] 3.7 16:12:10 10° NNE 16:13:11 12° NE 16:13:11 12° NE
Cosmos 1626 Rocket 3.7 16:09:09 10° NNW 16:13:30 78° W 16:17:47 10° S
[s.n.66846] 3.7 16:12:34 10° NNE 16:13:36 12° NE 16:13:36 12° NE
[s.n.66843] 3.7 16:13:05 10° NNE 16:14:08 12° NE 16:14:08 12° NE
Meteor 1-28 Rocket 3.0 16:11:05 10° NNE 16:14:24 53° E 16:17:40 10° S
[s.n.66844] 3.7 16:13:30 10° NNE 16:14:34 12° NE 16:14:34 12° NE
[s.n.66842] 3.7 16:14:01 10° NNE 16:15:06 12° NE 16:15:06 12° NE
[s.n.66841] 3.7 16:14:28 10° NNE 16:15:33 12° NE 16:15:33 12° NE
[s.n.66840] 3.7 16:14:57 10° NNE 16:16:03 12° NE 16:16:03 12° NE
[s.n.66838] 3.7 16:15:24 10° NNE 16:16:31 13° NE 16:16:31 13° NE
NOSS 2-2 (C) 3.4 16:14:08 10° WSW 16:17:09 46° NW 16:19:48 12° NE
[s.n.66839] 3.7 16:15:53 10° NNE 16:17:01 13° NE 16:17:01 13° NE
[s.n.66837] 3.6 16:16:19 10° NNE 16:17:28 13° NE 16:17:28 13° NE
[s.n.66836] 3.6 16:16:49 10° NNE 16:17:57 13° NE 16:17:57 13° NE
[s.n.66835] 3.6 16:17:18 10° N 16:18:27 13° NE 16:18:27 13° NE
[s.n.66834] 3.6 16:17:46 10° N 16:18:56 13° NE 16:18:56 13° NE
[s.n.66833] 3.6 16:18:12 10° N 16:19:22 13° NE 16:19:22 13° NE
[s.n.66832] 3.6 16:18:44 10° N 16:19:54 13° NE 16:19:54 13° NE
[s.n.66831] 3.6 16:19:08 10° N 16:20:19 13° NE 16:20:19 13° NE
[s.n.66830] 3.6 16:19:33 10° N 16:20:45 13° NE 16:20:45 13° NE
[s.n.66828] 3.6 16:19:58 10° N 16:21:11 14° NE 16:21:11 14° NE
[s.n.66829] 3.6 16:20:29 10° N 16:21:42 14° NE 16:21:42 14° NE
[s.n.66827] 3.6 16:21:00 10° N 16:22:13 14° NE 16:22:13 14° NE
Cosmos 1315 Rocket 4.0 16:19:16 10° SW 16:22:54 40° WNW 16:26:33 10° N
[s.n.66826] 3.6 16:21:30 10° N 16:22:43 14° NNE 16:22:43 14° NNE
[s.n.66825] 3.6 16:21:55 10° N 16:23:09 14° NNE 16:23:09 14° NNE
[s.n.66824] 3.6 16:22:26 10° N 16:23:40 14° NNE 16:23:40 14° NNE
Cosmos 1606 Rocket 4.3 16:20:21 10° SSE 16:24:16 32° E 16:28:11 10° NNE
[s.n.66823] 3.6 16:22:56 10° N 16:24:10 14° NNE 16:24:10 14° NNE
[s.n.66822] 3.5 16:23:25 10° N 16:24:39 14° NNE 16:24:39 14° NNE
ATLAS CENTAUR R/B 3.4 16:22:29 10° WNW 16:25:09 24° WSW 16:27:45 10° S
[s.n.66821] 3.5 16:23:52 10° N 16:25:07 14° NNE 16:25:07 14° NNE
Thor Agena Rocket 3.6 16:22:32 10° SSE 16:27:44 89° ENE 16:32:55 10° NNW
Cosmos 2219 3.9 16:23:20 10° NNW 16:28:33 34° NE 16:33:45 10° ESE
Cosmos 1503 Rocket 4.2 16:23:34 10° S 16:28:39 53° ESE 16:33:38 10° NNE
CENTAUR R/B 3.2 16:24:12 10° WSW 16:30:07 51° NNW 16:36:57 12° NE
Cosmos 1484 Rocket 3.7 16:29:03 10° S 16:32:26 46° W 16:35:50 10° NNW
USA 290 3.5 16:29:25 10° NW 16:32:34 46° WSW 16:35:42 10° S
SL-16 R/B 2.6 16:26:30 10° NNE 16:32:46 86° WNW 16:38:57 10° SSW
Cosmos 1544 Rocket 3.7 16:29:00 10° SSW 16:33:24 78° WNW 16:37:52 10° N
GEOS 3 Rocket 4.0 16:28:50 14° NE 16:33:24 52° SE 16:38:38 10° SSW
AQUARIUS 4.2 16:30:27 10° SE 16:34:43 51° ENE 16:39:00 10° N
Cosmos 1844 Rocket 4.1 16:31:26 10° NNW 16:35:25 19° NNE 16:37:19 16° ENE
Lacrosse 5 rocket 1.8 16:31:55 10° W 16:35:28 40° NNW 16:37:41 19° NE
Cosmos 1980 Rocket 3.4 16:31:28 10° SSE 16:35:41 22° ESE 16:37:57 17° ENE
Cosmos 1354 Rocket 4.3 16:33:18 10° S 16:38:18 46° ESE 16:42:34 14° NE
Meteor 1-25 Rocket 4.2 16:32:39 10° N 16:38:31 72° ENE 16:44:15 10° SSE
Meteor 1-5 Rocket 4.3 16:33:23 10° N 16:38:34 49° ENE 16:43:51 10° SE
Lacrosse 4 Rocket 3.3 16:37:17 10° W 16:40:26 21° NW 16:43:33 10° NNE
BREEZE M DEB (TANK) 3.5 16:38:41 10° SSW 16:40:32 19° SSE 16:41:17 16° SE
CORIOLIS 4.2 16:36:38 10° SSE 16:41:58 82° WSW 16:47:22 10° NNW
IRIDIUM 104 4.3 16:37:58 10° N 16:43:14 84° E 16:48:28 10° S
Cosmos 2263 Rocket 2.3 16:38:10 10° NNW 16:43:44 53° NE 16:49:18 10° SE
Cosmos 2228 4.5 16:40:26 10° SW 16:44:22 36° WNW 16:48:20 10° N
Cosmos 1777 Rocket 4.0 16:39:34 10° SSW 16:44:49 81° ESE 16:49:53 11° NNE
Cosmos 1726 Rocket 4.1 16:43:47 10° SSE 16:48:07 41° E 16:51:54 13° NNE
CZ-2D R/B 2.6 16:45:30 10° SSE 16:48:38 78° ENE 16:51:48 10° N
Okean 1-7 Rocket 3.5 16:46:07 10° N 16:50:33 87° WSW 16:54:54 10° S
USA 238 DEB 4.4 16:45:35 10° S 16:50:47 30° ESE 16:53:47 21° ENE
USA 238 4.4 16:45:43 10° S 16:50:55 30° ESE 16:53:52 21° ENE
IRIDIUM 114 4.4 16:47:07 10° N 16:52:23 83° W 16:57:36 10° S
Cosmos 1602 Rocket 4.2 16:48:06 10° NNW 16:52:26 59° W 16:56:42 10° S
NOSS 3 (A) 4.2 16:50:16 10° NW 16:52:26 47° NE 16:52:32 47° NE
ERS-1 4.4 16:49:14 10° SSE 16:54:14 81° ENE 16:59:14 10° NNW
Cosmos 1461 2.6 16:52:29 10° SW 16:56:24 85° SE 16:58:30 27° NE
Cosmos 1933 3.1 16:54:22 10° S 16:58:11 71° E 17:01:21 14° NNE
USA 215 3.5 16:53:50 20° ENE 16:58:18 57° N 17:04:42 10° WNW
IRS-1C 4.2 16:54:38 10° SSE 16:59:58 79° WSW 17:05:20 10° NNW
Cosmos 2227 Rocket 2.3 16:54:32 10° NNW 17:00:12 80° WSW 17:05:51 10° SSE
SKYMED 2 4.2 16:58:49 26° ENE 17:00:18 34° E 17:04:15 10° SSE
YAOGAN 1 3.0 16:56:48 10° SE 17:00:42 37° ENE 17:04:39 10° N
Cosmos-2242 4.1 16:57:28 10° SE 17:00:13 24° ESE 17:00:13 24° ESE
Cosmos 1743 4.5 17:00:05 10° NNW 17:02:54 28° W 17:05:43 10° SSW
NOSS 2-3 (E) 3.9 16:59:35 10° SSW 17:02:56 35° SE 17:03:39 32° E
NOSS 2-3 (D) 3.9 17:00:17 10° S 17:03:37 33° ESE 17:04:14 31° ESE
Cosmos 1486 Rocket 4.5 16:59:29 10° SW 17:04:39 60° WNW 17:09:40 11° NNE
SJ-12 3.9 17:01:02 10° S 17:04:47 72° WSW 17:08:35 10° NNW
Cosmos 2369 Rocket 4.3 17:01:57 10° WNW 17:05:28 16° NNW 17:09:00 10° NNE
Cosmos 2151 4.2 17:02:33 10° NNW 17:06:30 43° W 17:10:26 10° SSW
Cosmos 1655 Rocket 3.9 17:06:11 10° N 17:12:28 79° E 17:18:41 10° SSE
Meteor 2-10 4.1 17:08:22 10° N 17:13:40 59° ENE 17:19:07 10° SSE
Cosmos 1697 Rocket 2.6 17:09:59 10° SSW 17:15:35 81° ESE 17:19:15 23° NNE
Cosmos 990 Rocket 3.8 17:10:46 10° SSW 17:15:53 76° ESE 17:19:09 23° NNE
CZ-4 R/B 4.2 17:12:16 10° SSE 17:16:12 76° ENE 17:20:10 10° N
Cosmos 1953 Rocket 3.4 17:11:52 10° N 17:16:20 77° ENE 17:20:46 10° SSE
MOS 1 Rocket 3.7 17:12:38 10° S 17:17:35 74° WSW 17:22:49 10° NNW
Aureole 1 Rocket 3.8 17:14:00 10° S 17:18:17 41° ESE 17:19:37 35° ENE
Cosmos 2278 Rocket 4.3 17:17:37 10° N 17:18:46 11° N 17:19:55 10° NNE
NOSS 2-2 (D) 4.3 17:22:01 10° W 17:24:40 25° NNW 17:25:11 24° NNW
ARIANE 5 R/B 3.5 17:20:07 10° S 17:25:01 49° W 17:30:01 10° NNW
Cosmos 1825 Rocket 4.3 17:21:21 10° NNW 17:25:37 53° W 17:29:48 10° S
Resurs 01 Rocket 3.7 17:29:46 13° N 17:29:46 13° N 17:30:23 10° N
Cosmos 1680 Rocket 3.9 17:26:54 10° NNW 17:31:46 40° NE 17:31:46 40° NE
NOAA 6 4.0 17:27:25 10° SE 17:32:23 56° ENE 17:37:22 10° N
USA 81 3.9 17:28:04 10° N 17:33:22 79° E 17:38:38 10° S
CZ-2D R/B 3.4 17:32:01 10° SSE 17:36:13 87° WSW 17:40:23 10° NNW
Radarsat Rocket 4.5 17:29:48 10° SSE 17:37:52 79° ENE 17:45:02 10° NNW
IRAS Rocket 4.1 17:33:17 10° SSE 17:38:44 75° ENE 17:44:14 10° NNW
NOSS 3-2 (A) 4.2 17:34:10 10° W 17:39:19 41° NNW 17:42:25 25° NNE
Gbstr 26 Del rocket 2.9 17:35:50 10° WSW 17:39:37 56° SSE 17:39:37 56° SSE
Meteor 2-2 Rocket 4.2 17:34:39 10° S 17:40:08 55° E 17:41:51 40° NE
Cosmos 1844 4.4 17:35:18 10° NNW 17:39:51 34° NNE 17:39:51 34° NNE
NOSS 3-2 (C) 3.5 17:35:12 10° WSW 17:40:24 65° NW 17:43:16 32° NNE
SPOT 1/Viking Rocket 3.8 17:36:46 10° S 17:41:57 70° WSW 17:47:11 10° NNW
Cosmos 1076 Rocket 4.2 17:39:28 10° NNW 17:43:41 53° W 17:47:53 10° S
PSLV R/B 3.2 17:43:07 58° SSE 17:43:52 82° ENE 17:47:57 10° NNW
[s.n.66845] 4.5 17:43:24 10° NW 17:43:45 13° NW 17:43:45 13° NW
SJ-7 4.3 17:47:21 67° NW 17:47:21 67° NW 17:50:42 10° NNW
SL-19 R/B 4.1 17:42:06 10° SSE 17:47:32 87° ENE 17:53:18 10° NNW
Cosmos 2082 3.6 17:41:46 10° NNW 17:47:32 81° ENE 17:50:41 28° SE
CZ-4C R/B 4.5 17:41:16 10° NW 17:47:42 37° WSW 17:55:21 10° S
COSMO-SKYMED 1 3.1 17:49:13 41° SSE 17:49:13 41° SSE 17:52:02 10° S
Cosmos 2058 Rocket 2.9 17:46:04 10° S 17:50:33 81° E 17:50:44 78° ENE
Cosmos 2227 4.5 17:50:47 10° NNW 17:55:43 47° NNE 17:55:43 47° NNE
Meteor 2-11 Rocket 4.3 17:53:36 10° N 17:59:47 70° ENE 18:05:54 10° SSE
Nadezhda 2 Rocket 4.3 17:55:20 10° N 18:01:30 90° NE 18:07:36 10° S
Meteor 1-26 Rocket 3.9 17:59:05 10° S 18:04:29 85° E 18:05:35 58° NNE
GEOS 3 Rocket 4.4 18:09:53 38° N 18:11:21 48° NW 18:16:30 10° WSW
Cosmos 1553 Rocket 3.8 18:05:39 10° S 18:11:49 82° E 18:14:51 33° NNE
Resurs 1-3 4.4 18:08:42 10° S 18:12:51 48° W 18:17:03 10° NNW
Cosmos 2219 3.7 18:07:22 10° NW 18:13:00 59° WSW 18:17:57 14° S
Lacrosse 5 rocket 3.1 18:09:35 10° WNW 18:11:16 22° NW 18:11:16 22° NW
Cosmos 1980 Rocket 2.2 18:13:25 10° SW 18:19:04 76° WNW 18:19:44 67° N
Cosmos 1844 Rocket 3.2 18:14:50 10° NNW 18:18:59 46° N 18:18:59 46° N
USA 281 4.2 18:22:44 31° NNE 18:22:44 31° NNE 18:26:53 10° NNW
CENTAUR R/B 3.9 18:16:15 10° WNW 18:22:24 34° N 18:24:02 31° NNE
Cosmos 1745 Rocket 4.1 18:19:40 10° N 18:24:47 61° NNE 18:24:47 61° NNE
Cosmos 2263 Rocket 3.8 18:22:25 10° NW 18:27:26 33° WSW 18:32:27 10° SSW
Cosmos 1898 Rocket 3.9 18:25:57 10° SSW 18:30:11 58° SW 18:30:11 58° SW
Cosmos 2369 4.1 18:26:16 10° SSW 18:30:42 56° SSW 18:30:42 56° SSW
Cosmos 44 Rocket 4.5 18:28:58 10° NW 18:32:08 38° NNW 18:32:08 38° NNW
YAOGAN 1 4.5 18:32:58 10° SSW 18:36:38 28° W 18:40:21 10° NW
USA 215 3.2 18:41:10 73° N 18:41:10 73° N 18:47:34 10° WNW
USA 238 DEB 3.5 18:34:52 10° SW 18:41:05 75° NW 18:41:14 75° NNW
USA 238 3.5 18:34:57 10° SW 18:41:11 76° NW 18:41:19 76° NNW
Cosmos 1697 Rocket 4.3 18:55:29 10° W 19:00:11 27° NW 19:00:59 26° NNW
CENTAUR R/B 4.5 20:07:46 10° NW 20:11:08 28° NNW 20:11:08 28° NNW
